Weather History for Flora, IL

Change the Weather History Date:

Wednesday, April 30, 2014

  Actual Average (KEVV) Record (KEVV)
Temperature  
Mean Temperature 48 °F 61 °F  
Max Temperature 53 °F 72 °F 89 °F (1942)
Min Temperature 43 °F 49 °F 33 °F (1969)
Degree Days  
Heating Degree Days 17 5  
Month to date heating degree days 288  
Since 1 July heating degree days 4455  
Cooling Degree Days 0 1  
Month to date cooling degree days 24  
Year to date cooling degree days 27  
Moisture  
Dew Point 41 °F    
Average Humidity 74    
Maximum Humidity 92    
Minimum Humidity 54    
Precipitation  
Precipitation 0.00 in 0.17 in 2.26 in (1983)
Month to date precipitation 4.37  
Year to date precipitation 14.88  
Snow  
Snow 0.00 in 0.00 in - ()
Month to date snowfall 0.1  
Since 1 July snowfall 11.8  
Snow Depth -    
Sea Level Pressure  
Sea Level Pressure 29.85 in    
Wind  
Wind Speed 9 mph (WSW)    
Max Wind Speed 16 mph    
Max Gust Speed 21 mph    
Visibility 10 miles    
Events Rain    
T = Trace of Precipitation, MM = Missing Value Source: NWS Daily Summary

Daily Weather History Graph

Daily Weather History Graph

Search for Another Location

Airport:

Trip Planner

Search our weather history database for the weather conditions in past years. The results will help you decide how hot, cold, wet, or windy it might be!

Date:

Astronomy

Apr. 30, 2014 Rise Set
Actual Time 5:57 AM CDT 7:45 PM CDT
Civil Twilight 5:29 AM CDT 8:13 PM CDT
Nautical Twilight 4:54 AM CDT 8:48 PM CDT
Astronomical Twilight 4:17 AM CDT 9:25 PM CDT
Moon 6:58 AM CDT (4/30) 9:23 PM CDT (4/30)
Length of Visible Light 14h 44m
Length of Day
13h 47m
New Moon, 2% of the Moon is Illuminated
Apr 30
New Moon
May 6
First Quarter
May 14
Full
May 21
Last Quarter
May 28
New

Hourly Weather History & Observations

Time (CDT) Temp. Windchill Dew Point Humidity Pressure Visibility Wind Dir Wind Speed Gust Speed Precip Events Conditions
12:15 AM 53.8 °F - 41.9 °F 64% 29.76 in 10.0 mi West 11.5 mph - N/A   Clear
12:35 AM 52.5 °F - 42.1 °F 68% 29.76 in 10.0 mi West 9.2 mph - N/A   Clear
12:55 AM 51.4 °F - 41.9 °F 70% 29.77 in 10.0 mi WSW 5.8 mph - N/A   Clear
1:15 AM 50.4 °F - 42.3 °F 74% 29.77 in 10.0 mi SW 4.6 mph - N/A   Clear
1:35 AM 48.7 °F - 41.9 °F 77% 29.76 in 10.0 mi WSW 5.8 mph - N/A   Clear
1:55 AM 48.7 °F - 41.9 °F 77% 29.76 in 10.0 mi WSW 4.6 mph - N/A   Clear
2:15 AM 48.2 °F - 41.2 °F 77% 29.76 in 10.0 mi WSW 4.6 mph - N/A   Clear
2:35 AM 47.5 °F - 41.2 °F 79% 29.76 in 10.0 mi WSW 6.9 mph - N/A   Clear
2:55 AM 47.5 °F - 41.2 °F 79% 29.75 in 10.0 mi SW 4.6 mph - N/A   Clear
3:15 AM 45.9 °F 44.6 °F 41.2 °F 84% 29.77 in 10.0 mi South 3.5 mph - N/A   Clear
3:35 AM 44.6 °F 42.2 °F 41.2 °F 88% 29.76 in 10.0 mi SW 4.6 mph - N/A   Clear
3:55 AM 44.4 °F 41.2 °F 40.8 °F 87% 29.77 in 10.0 mi South 5.8 mph - N/A   Clear
4:15 AM 45.9 °F 42.9 °F 42.8 °F 89% 29.78 in 10.0 mi South 5.8 mph - N/A   Clear
4:35 AM 47.3 °F - 41.7 °F 81% 29.77 in 10.0 mi West 9.2 mph - N/A   Clear
5:00 AM 46.6 °F - 41.2 °F 81% 29.78 in 10.0 mi SSW 5.8 mph - N/A   Clear
5:15 AM 45.0 °F 41.8 °F 41.0 °F 86% 29.79 in 10.0 mi South 5.8 mph - N/A   Clear
5:35 AM 45.0 °F 41.8 °F 41.4 °F 87% 29.79 in 10.0 mi South 5.8 mph - N/A   Clear
5:55 AM 43.9 °F 39.9 °F 41.0 °F 90% 29.79 in 10.0 mi WSW 6.9 mph - N/A   Clear
6:15 AM 45.5 °F 43.2 °F 41.5 °F 86% 29.79 in 10.0 mi SW 4.6 mph - N/A   Clear
6:35 AM 45.9 °F 43.6 °F 42.3 °F 87% 29.79 in 10.0 mi SW 4.6 mph - N/A   Clear
6:55 AM 47.5 °F - 43.0 °F 84% 29.79 in 10.0 mi SW 3.5 mph - N/A   Clear
7:15 AM 48.7 °F - 43.5 °F 82% 29.79 in 10.0 mi SW 6.9 mph - N/A   Clear
7:35 AM 50.2 °F - 43.7 °F 78% 29.79 in 10.0 mi WSW 11.5 mph - N/A   Clear
7:55 AM 50.2 °F - 43.7 °F 78% 29.80 in 10.0 mi West 11.5 mph - N/A   Clear
8:15 AM 50.0 °F - 43.9 °F 79% 29.80 in 10.0 mi WSW 9.2 mph - N/A   Clear
8:35 AM 50.2 °F - 44.6 °F 81% 29.80 in 10.0 mi West 8.1 mph - N/A   Clear
8:55 AM 50.4 °F - 44.8 °F 81% 29.81 in 10.0 mi WSW 9.2 mph - N/A   Clear
9:15 AM 50.2 °F - 45.1 °F 83% 29.82 in 10.0 mi WSW 12.7 mph - N/A   Clear
9:35 AM 49.3 °F - 45.5 °F 87% 29.83 in 4.0 mi West 9.2 mph - N/A Rain Light Rain
9:55 AM 49.6 °F - 46.2 °F 88% 29.83 in 4.0 mi West 9.2 mph - N/A   Clear
10:10 AM 49.5 °F - 47.3 °F 92% 29.83 in 3.0 mi WNW 11.5 mph - N/A   Mist
10:35 AM 48.6 °F - 46.4 °F 92% 29.84 in 4.0 mi West 11.5 mph 16.1 mph N/A   Clear
10:55 AM 49.6 °F - 44.2 °F 82% 29.84 in 10.0 mi West 10.4 mph - N/A   Clear
11:15 AM 51.1 °F - 43.0 °F 74% 29.85 in 10.0 mi West 13.8 mph - N/A   Clear
11:35 AM 51.8 °F - 42.8 °F 71% 29.86 in 10.0 mi West 12.7 mph - N/A   Clear
11:55 AM 52.7 °F - 42.8 °F 69% 29.86 in 10.0 mi WNW 12.7 mph - N/A   Clear
12:15 PM 52.2 °F - 42.4 °F 69% 29.86 in 10.0 mi WNW 13.8 mph 17.3 mph N/A   Clear
12:30 PM 51.8 °F - 42.8 °F 71% 29.87 in 10.0 mi West 16.1 mph - N/A   Clear
12:55 PM 51.3 °F - 41.4 °F 69% 29.88 in 10.0 mi West 15.0 mph - N/A   Clear
1:15 PM 51.3 °F - 40.8 °F 67% 29.88 in 10.0 mi West 13.8 mph 18.4 mph N/A   Clear
1:35 PM 51.4 °F - 39.9 °F 65% 29.88 in 10.0 mi West 15.0 mph - N/A   Clear
1:55 PM 52.5 °F - 39.6 °F 61% 29.88 in 10.0 mi West 13.8 mph - N/A   Clear
2:15 PM 52.0 °F - 39.9 °F 63% 29.89 in 10.0 mi West 11.5 mph 20.7 mph N/A   Clear
2:35 PM 52.3 °F - 40.1 °F 63% 29.89 in 10.0 mi West 12.7 mph 17.3 mph N/A   Clear
2:55 PM 51.3 °F - 39.0 °F 63% 29.89 in 10.0 mi West 13.8 mph 19.6 mph N/A   Clear
3:15 PM 51.3 °F - 38.1 °F 61% 29.89 in 10.0 mi West 13.8 mph 20.7 mph N/A   Clear
3:35 PM 51.1 °F - 38.1 °F 61% 29.90 in 10.0 mi West 10.4 mph - N/A   Clear
3:55 PM 50.9 °F - 37.8 °F 61% 29.90 in 10.0 mi West 12.7 mph 18.4 mph N/A   Clear
4:15 PM 51.1 °F - 37.4 °F 60% 29.90 in 10.0 mi West 13.8 mph - N/A   Clear
4:35 PM 51.1 °F - 37.6 °F 60% 29.90 in 10.0 mi West 9.2 mph - N/A   Clear
4:55 PM 51.1 °F - 37.4 °F 60% 29.91 in 10.0 mi West 11.5 mph 18.4 mph N/A   Clear
5:15 PM 51.1 °F - 37.9 °F 61% 29.91 in 10.0 mi West 9.2 mph - N/A   Clear
5:35 PM 51.1 °F - 37.0 °F 59% 29.91 in 10.0 mi West 11.5 mph - N/A   Clear
5:55 PM 51.1 °F - 37.9 °F 61% 29.91 in 10.0 mi WSW 9.2 mph - N/A   Clear
6:15 PM 52.9 °F - 37.9 °F 57% 29.90 in 10.0 mi West 9.2 mph - N/A   Clear
6:35 PM 52.9 °F - 36.5 °F 54% 29.91 in 10.0 mi West 11.5 mph 16.1 mph N/A   Clear
6:55 PM 52.0 °F - 36.9 °F 56% 29.91 in 10.0 mi WSW 8.1 mph - N/A   Clear
7:15 PM 51.1 °F - 37.4 °F 60% 29.92 in 10.0 mi WSW 8.1 mph - N/A   Clear
7:35 PM 48.9 °F - 38.3 °F 67% 29.93 in 10.0 mi SSW 5.8 mph - N/A   Clear
7:55 PM 46.2 °F 44.1 °F 38.3 °F 74% 29.93 in 10.0 mi SSW 4.6 mph - N/A   Clear
8:15 PM 47.5 °F - 38.8 °F 72% 29.93 in 10.0 mi SSW 5.8 mph - N/A   Clear
8:35 PM 47.7 °F - 38.5 °F 70% 29.93 in 10.0 mi South 5.8 mph - N/A   Clear
8:55 PM 48.2 °F - 39.2 °F 71% 29.93 in 10.0 mi South 5.8 mph - N/A   Clear
9:15 PM 47.5 °F - 39.7 °F 75% 29.93 in 10.0 mi South 6.9 mph - N/A   Clear
9:35 PM 45.9 °F 42.9 °F 39.4 °F 78% 29.93 in 10.0 mi South 5.8 mph - N/A   Clear
9:55 PM 45.9 °F 42.3 °F 39.7 °F 79% 29.93 in 10.0 mi South 6.9 mph - N/A   Clear
10:15 PM 46.4 °F 42.9 °F 39.7 °F 78% 29.93 in 10.0 mi South 6.9 mph - N/A   Clear
10:35 PM 46.6 °F - 39.6 °F 77% 29.93 in 10.0 mi South 6.9 mph - N/A   Clear
10:55 PM 47.5 °F - 39.4 °F 73% 29.93 in 10.0 mi South 6.9 mph - N/A   Clear
11:15 PM 47.5 °F - 39.6 °F 74% 29.93 in 10.0 mi SSW 8.1 mph - N/A   Clear
11:35 PM 47.7 °F - 39.4 °F 73% 29.92 in 10.0 mi SSW 8.1 mph - N/A   Clear
11:55 PM 47.7 °F - 39.4 °F 73% 29.92 in 10.0 mi SSW 6.9 mph - N/A   Clear